VTK113 USRO-ULPB

Flight info

Callsign VTK113
Flight time 3h 12m
Altitude 36000
Route DINO2H DINOL T797 KANAL B229 LARTU M59 UHT/K0859F380 M59 DELUL T821 SOPID DCT
Aircraft A319/M-SDE3FGHIRWY/LB1

Departure

Time 2026-05-06 14:22
Airport Noyabrsk Airport (USRO)

Arrival

Time 2026-05-06 17:35
Airport Petrozavodsk Airport (ULPB)
Time Latitude Longitude Altitude Speed Heading
2026-05-06 13:58 63.18283 75.27422 458 ft 0 kts 204°
2026-05-06 14:16 63.18279 75.27418 455 ft 2 kts 204°
2026-05-06 14:16 63.18262 75.27401 454 ft 4 kts 204°
2026-05-06 14:16 63.18252 75.27348 455 ft 4 kts 268°
2026-05-06 14:16 63.18266 75.27269 455 ft 7 kts 298°
2026-05-06 14:17 63.18289 75.27166 454 ft 8 kts 296°
2026-05-06 14:17 63.18315 75.27050 457 ft 7 kts 296°
2026-05-06 14:17 63.18337 75.26946 458 ft 8 kts 295°
2026-05-06 14:17 63.18392 75.26896 457 ft 11 kts 13°
2026-05-06 14:18 63.18457 75.26962 456 ft 10 kts 25°
2026-05-06 14:18 63.18539 75.27048 452 ft 16 kts 25°
2026-05-06 14:18 63.18648 75.27166 450 ft 19 kts 27°
2026-05-06 14:18 63.18776 75.27313 448 ft 22 kts 21°
2026-05-06 14:19 63.18929 75.27452 441 ft 25 kts 23°
2026-05-06 14:19 63.19104 75.27630 427 ft 28 kts 25°
2026-05-06 14:19 63.19230 75.27759 432 ft 19 kts 25°
2026-05-06 14:19 63.19326 75.27863 434 ft 8 kts 42°
2026-05-06 14:20 63.19351 75.27964 431 ft 5 kts 62°
2026-05-06 14:20 63.19388 75.27988 427 ft 6 kts 327°
2026-05-06 14:20 63.19385 75.27920 438 ft 4 kts 229°
2026-05-06 14:20 63.19366 75.27897 438 ft 0 kts 205°
2026-05-06 14:21 63.19327 75.27856 433 ft 31 kts 205°
2026-05-06 14:22 63.18877 75.27395 442 ft 105 kts 204°
2026-05-06 14:22 63.18027 75.26537 456 ft 161 kts 204°
2026-05-06 14:22 63.16914 75.25446 792 ft 179 kts 203°
2026-05-06 14:22 63.15778 75.24295 1539 ft 179 kts 207°
2026-05-06 14:23 63.14664 75.23136 2294 ft 174 kts 209°
2026-05-06 14:23 63.13547 75.21965 2912 ft 177 kts 211°
2026-05-06 14:23 63.12416 75.20788 3441 ft 183 kts 211°
2026-05-06 14:23 63.11303 75.19358 3934 ft 188 kts 221°
2026-05-06 14:24 63.10241 75.17481 4426 ft 197 kts 224°
2026-05-06 14:24 63.09170 75.15468 4922 ft 207 kts 225°
2026-05-06 14:24 63.08032 75.13326 5385 ft 222 kts 225°
2026-05-06 14:24 63.06814 75.11061 5900 ft 238 kts 224°
2026-05-06 14:25 63.05515 75.08670 6503 ft 247 kts 224°
2026-05-06 14:25 63.04170 75.06227 7234 ft 252 kts 224°
2026-05-06 14:25 63.02801 75.03775 7972 ft 256 kts 223°
2026-05-06 14:25 63.01410 75.01294 8808 ft 259 kts 224°
2026-05-06 14:26 62.99996 74.98779 9655 ft 262 kts 224°
2026-05-06 14:26 62.98574 74.96247 10411 ft 265 kts 224°
2026-05-06 14:26 62.97128 74.93672 11179 ft 268 kts 224°
2026-05-06 14:26 62.95674 74.91080 11919 ft 272 kts 224°
2026-05-06 14:27 62.94188 74.88442 12669 ft 275 kts 223°
2026-05-06 14:27 62.92676 74.85761 13426 ft 278 kts 223°
2026-05-06 14:27 62.91153 74.83066 14089 ft 282 kts 223°
2026-05-06 14:27 62.89641 74.80391 14752 ft 284 kts 223°
2026-05-06 14:28 62.88077 74.77633 15414 ft 287 kts 223°
2026-05-06 14:28 62.86514 74.74883 16083 ft 289 kts 223°
2026-05-06 14:28 62.84938 74.72112 16753 ft 292 kts 223°
2026-05-06 14:28 62.83347 74.69318 17426 ft 294 kts 223°
2026-05-06 14:29 62.81739 74.66524 17999 ft 301 kts 223°
2026-05-06 14:29 62.80012 74.63658 18112 ft 321 kts 221°
2026-05-06 14:29 62.78163 74.60678 18235 ft 339 kts 220°
2026-05-06 14:29 62.76189 74.57532 18462 ft 352 kts 220°
2026-05-06 14:30 62.74192 74.54357 18910 ft 357 kts 220°
2026-05-06 14:30 62.72177 74.51160 19447 ft 360 kts 220°
2026-05-06 14:30 62.70151 74.47937 19991 ft 363 kts 220°
2026-05-06 14:30 62.68101 74.44671 20540 ft 366 kts 220°
2026-05-06 14:31 62.66038 74.41383 21086 ft 368 kts 220°
2026-05-06 14:31 62.63966 74.38086 21628 ft 371 kts 220°
2026-05-06 14:31 62.61873 74.34753 22146 ft 374 kts 220°
2026-05-06 14:31 62.59767 74.31407 22667 ft 376 kts 220°
2026-05-06 14:32 62.57647 74.28044 23173 ft 379 kts 220°
2026-05-06 14:32 62.55512 74.24659 23601 ft 381 kts 220°
2026-05-06 14:32 62.53368 74.21264 24014 ft 384 kts 220°
2026-05-06 14:32 62.51211 74.17854 24422 ft 386 kts 220°
2026-05-06 14:33 62.49034 74.14414 24829 ft 388 kts 220°
2026-05-06 14:33 62.47560 74.12085 25093 ft 389 kts 220°
2026-05-06 14:33 62.44626 74.07460 25615 ft 392 kts 220°
2026-05-06 14:33 62.42445 74.04028 26001 ft 394 kts 220°
2026-05-06 14:34 62.40946 74.01673 26268 ft 395 kts 220°
2026-05-06 14:34 62.38716 73.98175 26659 ft 397 kts 220°
2026-05-06 14:34 62.36476 73.94672 27041 ft 399 kts 220°
2026-05-06 14:34 62.34216 73.91149 27423 ft 402 kts 220°
2026-05-06 14:35 62.31949 73.87616 27797 ft 404 kts 220°
2026-05-06 14:35 62.29666 73.84071 28167 ft 406 kts 220°
2026-05-06 14:35 62.27366 73.80511 28525 ft 408 kts 220°
2026-05-06 14:35 62.25058 73.76947 28879 ft 410 kts 220°
2026-05-06 14:36 62.22708 73.73318 29235 ft 412 kts 221°
2026-05-06 14:36 62.20377 73.69706 29555 ft 414 kts 221°
2026-05-06 14:36 62.18244 73.65622 29852 ft 410 kts 232°
2026-05-06 14:36 62.16523 73.60802 30113 ft 407 kts 242°
2026-05-06 14:37 62.15268 73.55412 30370 ft 405 kts 251°
2026-05-06 14:37 62.14510 73.49644 30615 ft 405 kts 261°
2026-05-06 14:37 62.14179 73.43635 30865 ft 406 kts 265°
2026-05-06 14:37 62.13890 73.37633 31209 ft 406 kts 264°
2026-05-06 14:38 62.13586 73.31626 31555 ft 406 kts 264°
2026-05-06 14:38 62.13272 73.25624 31884 ft 406 kts 264°
2026-05-06 14:38 62.12951 73.19549 32203 ft 407 kts 264°
2026-05-06 14:38 62.12633 73.13545 32527 ft 407 kts 264°
2026-05-06 14:39 62.12314 73.07536 32838 ft 407 kts 264°
2026-05-06 14:39 62.11994 73.01531 33143 ft 408 kts 264°
2026-05-06 14:39 62.11673 72.95505 33434 ft 409 kts 264°
2026-05-06 14:39 62.11351 72.89469 33738 ft 409 kts 264°
2026-05-06 14:40 62.11027 72.83415 33993 ft 410 kts 264°
2026-05-06 14:40 62.10698 72.77361 34256 ft 410 kts 264°
2026-05-06 14:40 62.10359 72.71242 34517 ft 410 kts 263°
2026-05-06 14:40 62.10020 72.65194 34761 ft 410 kts 263°
2026-05-06 14:41 62.09679 72.59140 35004 ft 410 kts 263°
2026-05-06 14:41 62.09336 72.53087 35228 ft 411 kts 263°
2026-05-06 14:41 62.08986 72.46961 35453 ft 411 kts 263°
2026-05-06 14:41 62.08639 72.40912 35647 ft 412 kts 263°
2026-05-06 14:42 62.07941 72.28814 35713 ft 410 kts 263°
2026-05-06 14:42 62.07233 72.16851 35712 ft 409 kts 263°
2026-05-06 14:43 62.06509 72.04808 35714 ft 409 kts 263°
2026-05-06 14:43 62.05780 71.92802 35715 ft 408 kts 263°
2026-05-06 14:44 62.05040 71.80803 35716 ft 408 kts 263°
2026-05-06 14:45 62.03904 71.62830 35714 ft 407 kts 263°
2026-05-06 14:45 62.03132 71.50883 35715 ft 407 kts 263°
2026-05-06 14:46 62.02355 71.38863 35717 ft 407 kts 263°
2026-05-06 14:46 62.01575 71.26947 35714 ft 406 kts 263°
2026-05-06 14:47 62.00777 71.15033 35713 ft 406 kts 262°
2026-05-06 14:47 61.99973 71.03132 35713 ft 406 kts 264°
2026-05-06 14:48 62.00232 70.91127 35711 ft 405 kts 282°
2026-05-06 14:48 62.01572 70.79478 35710 ft 406 kts 282°
2026-05-06 14:49 62.02898 70.67791 35706 ft 405 kts 282°
2026-05-06 14:49 62.04202 70.56129 35707 ft 405 kts 282°
2026-05-06 14:50 62.05500 70.44452 35706 ft 405 kts 282°
2026-05-06 14:50 62.06790 70.32735 35703 ft 405 kts 282°
2026-05-06 14:51 62.08067 70.21041 35700 ft 405 kts 282°
2026-05-06 14:51 62.09340 70.09329 35697 ft 405 kts 282°
2026-05-06 14:52 62.10609 69.97537 35694 ft 405 kts 282°
2026-05-06 14:52 62.11858 69.85838 35699 ft 405 kts 281°
2026-05-06 14:53 62.13099 69.74103 35701 ft 405 kts 281°
2026-05-06 14:53 62.14326 69.62367 35694 ft 405 kts 281°
2026-05-06 14:54 62.15541 69.50613 35689 ft 405 kts 281°
2026-05-06 14:54 62.16759 69.38768 35689 ft 405 kts 281°
2026-05-06 14:55 62.17961 69.27002 35695 ft 405 kts 281°
2026-05-06 14:55 62.19154 69.15210 35691 ft 405 kts 281°
2026-05-06 14:56 62.20328 69.03442 35690 ft 404 kts 281°
2026-05-06 14:56 62.21495 68.91657 35695 ft 404 kts 281°
2026-05-06 14:57 62.22662 68.79853 35694 ft 404 kts 281°
2026-05-06 14:57 62.23816 68.68055 35694 ft 404 kts 281°
2026-05-06 14:58 62.24950 68.56265 35697 ft 404 kts 280°
2026-05-06 14:58 62.26070 68.44443 35704 ft 404 kts 280°
2026-05-06 14:59 62.26999 68.34568 35701 ft 403 kts 280°
2026-05-06 14:59 62.28108 68.22746 35696 ft 403 kts 280°
2026-05-06 15:00 62.29209 68.10942 35704 ft 403 kts 280°
2026-05-06 15:00 62.30298 67.99100 35700 ft 403 kts 280°
2026-05-06 15:01 62.31376 67.87199 35697 ft 403 kts 279°
2026-05-06 15:01 62.32439 67.75372 35703 ft 403 kts 279°
2026-05-06 15:02 62.33493 67.63555 35705 ft 403 kts 279°
2026-05-06 15:02 62.34540 67.51714 35706 ft 403 kts 279°
2026-05-06 15:03 62.35578 67.39863 35706 ft 403 kts 279°
2026-05-06 15:03 62.36602 67.28008 35708 ft 403 kts 279°
2026-05-06 15:04 62.37624 67.16068 35708 ft 402 kts 279°
2026-05-06 15:04 62.38619 67.04198 35707 ft 402 kts 279°
2026-05-06 15:05 62.39611 66.92334 35708 ft 402 kts 279°
2026-05-06 15:05 62.40601 66.80479 35706 ft 402 kts 279°
2026-05-06 15:06 62.41579 66.68581 35707 ft 402 kts 279°
2026-05-06 15:06 62.42534 66.56706 35709 ft 402 kts 278°
2026-05-06 15:07 62.43477 66.44829 35703 ft 402 kts 278°
2026-05-06 15:07 62.44421 66.32949 35705 ft 401 kts 278°
2026-05-06 15:08 62.45350 66.21050 35702 ft 401 kts 278°
2026-05-06 15:08 62.46269 66.09087 35702 ft 401 kts 278°
2026-05-06 15:09 62.47516 65.97336 35704 ft 402 kts 285°
2026-05-06 15:09 62.49107 65.85734 35701 ft 402 kts 284°
2026-05-06 15:10 62.50686 65.74053 35704 ft 402 kts 284°
2026-05-06 15:10 62.52239 65.62426 35701 ft 402 kts 284°
2026-05-06 15:11 62.53783 65.50797 35705 ft 402 kts 284°
2026-05-06 15:11 62.55322 65.39161 35698 ft 402 kts 284°
2026-05-06 15:12 62.56847 65.27503 35696 ft 402 kts 284°
2026-05-06 15:12 62.58359 65.15857 35697 ft 402 kts 284°
2026-05-06 15:13 62.59863 65.04184 35700 ft 401 kts 284°
2026-05-06 15:13 62.61373 64.92421 35701 ft 401 kts 284°
2026-05-06 15:14 62.62857 64.80745 35697 ft 401 kts 284°
2026-05-06 15:14 62.64333 64.69054 35699 ft 401 kts 283°
2026-05-06 15:15 62.65804 64.57355 35693 ft 401 kts 283°
2026-05-06 15:15 62.67264 64.45648 35696 ft 401 kts 283°
2026-05-06 15:16 62.68707 64.33932 35695 ft 401 kts 283°
2026-05-06 15:16 62.70142 64.22199 35700 ft 401 kts 283°
2026-05-06 15:17 62.71570 64.10440 35698 ft 401 kts 283°
2026-05-06 15:17 62.72996 63.98625 35690 ft 401 kts 283°
2026-05-06 15:18 62.74400 63.86882 35686 ft 400 kts 283°
2026-05-06 15:18 62.75787 63.75120 35680 ft 400 kts 283°
2026-05-06 15:19 62.77170 63.63351 35680 ft 400 kts 282°
2026-05-06 15:19 62.78542 63.51614 35677 ft 399 kts 282°
2026-05-06 15:20 62.79920 63.39757 35667 ft 399 kts 282°
2026-05-06 15:20 62.81269 63.28001 35667 ft 399 kts 282°
2026-05-06 15:21 62.82614 63.16206 35666 ft 399 kts 282°
2026-05-06 15:21 62.83942 63.04417 35664 ft 399 kts 282°
2026-05-06 15:22 62.85259 62.92614 35665 ft 399 kts 282°
2026-05-06 15:22 62.86578 62.80785 35663 ft 399 kts 282°
2026-05-06 15:23 62.87891 62.68879 35667 ft 400 kts 282°
2026-05-06 15:23 62.89189 62.57041 35670 ft 399 kts 281°
2026-05-06 15:24 62.90465 62.45177 35666 ft 399 kts 281°
2026-05-06 15:24 62.91736 62.33314 35671 ft 399 kts 281°
2026-05-06 15:25 62.93001 62.21474 35668 ft 399 kts 281°
2026-05-06 15:25 62.94255 62.09595 35669 ft 399 kts 281°
2026-05-06 15:26 62.95498 61.97730 35669 ft 398 kts 281°
2026-05-06 15:26 62.96526 61.87778 35665 ft 398 kts 281°
2026-05-06 15:27 62.97745 61.75907 35663 ft 398 kts 280°
2026-05-06 15:27 62.98954 61.64052 35665 ft 398 kts 280°
2026-05-06 15:28 63.00158 61.52177 35666 ft 397 kts 280°
2026-05-06 15:28 63.01344 61.40293 35663 ft 397 kts 280°
2026-05-06 15:29 63.02513 61.28468 35663 ft 397 kts 280°
2026-05-06 15:29 63.03692 61.16493 35659 ft 396 kts 280°
2026-05-06 15:30 63.04853 61.04607 35662 ft 396 kts 279°
2026-05-06 15:30 63.05989 60.92739 35661 ft 396 kts 279°
2026-05-06 15:31 63.07123 60.80847 35661 ft 396 kts 279°
2026-05-06 15:31 63.08242 60.68979 35664 ft 395 kts 279°
2026-05-06 15:32 63.09914 60.51159 35658 ft 395 kts 279°
2026-05-06 15:32 63.11006 60.39277 35653 ft 394 kts 279°
2026-05-06 15:33 63.12092 60.27367 35651 ft 394 kts 279°
2026-05-06 15:33 63.13169 60.15500 35649 ft 393 kts 278°
2026-05-06 15:34 63.14235 60.03637 35646 ft 393 kts 278°
2026-05-06 15:34 63.15285 59.91783 35641 ft 392 kts 278°
2026-05-06 15:35 63.16318 59.79935 35644 ft 392 kts 278°
2026-05-06 15:35 63.17348 59.68069 35642 ft 393 kts 278°
2026-05-06 15:36 63.18386 59.56120 35644 ft 392 kts 278°
2026-05-06 15:36 63.19408 59.44268 35641 ft 392 kts 278°
2026-05-06 15:37 63.20419 59.32402 35634 ft 392 kts 278°
2026-05-06 15:37 63.21423 59.20507 35633 ft 392 kts 278°
2026-05-06 15:38 63.22412 59.08619 35632 ft 392 kts 277°
2026-05-06 15:38 63.23393 58.96703 35634 ft 393 kts 277°
2026-05-06 15:39 63.24366 58.84794 35627 ft 392 kts 277°
2026-05-06 15:39 63.25333 58.72866 35629 ft 392 kts 277°
2026-05-06 15:40 63.26281 58.60950 35624 ft 392 kts 277°
2026-05-06 15:40 63.27222 58.48968 35625 ft 392 kts 277°
2026-05-06 15:41 63.28147 58.37035 35616 ft 392 kts 277°
2026-05-06 15:41 63.29067 58.25099 35622 ft 392 kts 277°
2026-05-06 15:42 63.29976 58.13163 35616 ft 392 kts 276°
2026-05-06 15:42 63.30875 58.01211 35628 ft 391 kts 276°
2026-05-06 15:43 63.31766 57.89275 35625 ft 391 kts 276°
2026-05-06 15:43 63.32644 57.77249 35628 ft 391 kts 276°
2026-05-06 15:44 63.33513 57.65319 35629 ft 391 kts 276°
2026-05-06 15:44 63.34380 57.53326 35638 ft 391 kts 276°
2026-05-06 15:45 63.35233 57.41409 35635 ft 390 kts 276°
2026-05-06 15:45 63.36064 57.29464 35642 ft 390 kts 276°
2026-05-06 15:46 63.36886 57.17514 35639 ft 390 kts 276°
2026-05-06 15:46 63.37707 57.05551 35645 ft 390 kts 276°
2026-05-06 15:47 63.38517 56.93520 35654 ft 390 kts 275°
2026-05-06 15:47 63.39310 56.81568 35655 ft 389 kts 275°
2026-05-06 15:48 63.40099 56.69644 35659 ft 389 kts 275°
2026-05-06 15:48 63.40872 56.57715 35660 ft 389 kts 275°
2026-05-06 15:49 63.41639 56.45745 35660 ft 388 kts 275°
2026-05-06 15:49 63.42396 56.33728 35664 ft 388 kts 275°
2026-05-06 15:50 63.43135 56.21795 35665 ft 388 kts 275°
2026-05-06 15:50 63.43866 56.09871 35670 ft 388 kts 275°
2026-05-06 15:51 63.44589 55.97930 35673 ft 387 kts 274°
2026-05-06 15:51 63.45294 55.85989 35672 ft 387 kts 274°
2026-05-06 15:52 63.46012 55.73983 35670 ft 387 kts 274°
2026-05-06 15:52 63.46609 55.64055 35673 ft 387 kts 274°
2026-05-06 15:53 63.47312 55.52114 35668 ft 387 kts 274°
2026-05-06 15:53 63.47988 55.40184 35672 ft 386 kts 274°
2026-05-06 15:54 63.48649 55.28255 35669 ft 386 kts 274°
2026-05-06 15:54 63.49302 55.16331 35676 ft 386 kts 274°
2026-05-06 15:55 63.49942 55.04412 35672 ft 386 kts 274°
2026-05-06 15:55 63.50575 54.92414 35670 ft 385 kts 274°
2026-05-06 15:56 63.51199 54.80515 35672 ft 385 kts 273°
2026-05-06 15:56 63.51808 54.68551 35970 ft 388 kts 273°
2026-05-06 15:57 63.52107 54.62545 36169 ft 389 kts 273°
2026-05-06 15:57 63.52407 54.56510 36354 ft 390 kts 273°
2026-05-06 15:57 63.52707 54.50434 36517 ft 392 kts 273°
2026-05-06 15:57 63.53005 54.44367 36679 ft 393 kts 273°
2026-05-06 15:58 63.53304 54.38265 36831 ft 394 kts 273°
2026-05-06 15:58 63.53598 54.32159 36987 ft 395 kts 273°
2026-05-06 15:58 63.53893 54.25997 37135 ft 396 kts 273°
2026-05-06 15:58 63.54186 54.19853 37276 ft 397 kts 273°
2026-05-06 15:59 63.54476 54.13681 37416 ft 398 kts 273°
2026-05-06 15:59 63.54767 54.07428 37590 ft 398 kts 273°
2026-05-06 15:59 63.55337 53.95026 37649 ft 401 kts 273°
2026-05-06 16:00 63.55894 53.82589 37652 ft 401 kts 273°
2026-05-06 16:00 63.56448 53.70134 37661 ft 401 kts 273°
2026-05-06 16:01 63.57010 53.57696 37650 ft 401 kts 273°
2026-05-06 16:01 63.57554 53.45240 37658 ft 401 kts 273°
2026-05-06 16:02 63.58075 53.32791 37656 ft 401 kts 273°
2026-05-06 16:02 63.58593 53.20244 37657 ft 401 kts 273°
2026-05-06 16:03 63.59102 53.07769 37661 ft 401 kts 273°
2026-05-06 16:03 63.59600 52.95291 37662 ft 401 kts 272°
2026-05-06 16:04 63.60085 52.82817 37663 ft 401 kts 272°
2026-05-06 16:04 63.60563 52.70319 37663 ft 401 kts 272°
2026-05-06 16:05 63.61024 52.57839 37662 ft 401 kts 272°
2026-05-06 16:05 63.61471 52.45338 37661 ft 401 kts 272°
2026-05-06 16:06 63.61915 52.32824 37662 ft 401 kts 272°
2026-05-06 16:06 63.62357 52.20219 37660 ft 401 kts 272°
2026-05-06 16:07 63.62778 52.07701 37662 ft 401 kts 272°
2026-05-06 16:07 63.63180 51.95196 37665 ft 401 kts 272°
2026-05-06 16:08 63.63576 51.82658 37665 ft 401 kts 272°
2026-05-06 16:08 63.63964 51.70143 37667 ft 401 kts 272°
2026-05-06 16:09 63.64345 51.57541 37665 ft 401 kts 271°
2026-05-06 16:09 63.64711 51.45019 37665 ft 401 kts 271°
2026-05-06 16:10 63.65068 51.32508 37674 ft 401 kts 271°
2026-05-06 16:10 63.65408 51.19994 37666 ft 400 kts 271°
2026-05-06 16:11 63.65739 51.07394 37674 ft 400 kts 271°
2026-05-06 16:11 63.66058 50.94876 37671 ft 400 kts 271°
2026-05-06 16:12 63.66366 50.82448 37679 ft 400 kts 271°
2026-05-06 16:12 63.66670 50.69854 37674 ft 400 kts 271°
2026-05-06 16:13 63.66952 50.57343 37674 ft 400 kts 271°
2026-05-06 16:13 63.67221 50.44812 37661 ft 401 kts 271°
2026-05-06 16:14 63.67488 50.32249 37677 ft 401 kts 270°
2026-05-06 16:14 63.67744 50.19711 37672 ft 401 kts 270°
2026-05-06 16:15 63.67984 50.07078 37677 ft 401 kts 270°
2026-05-06 16:15 63.68205 49.94733 37678 ft 401 kts 270°
2026-05-06 16:16 63.68436 49.82148 37679 ft 401 kts 270°
2026-05-06 16:16 63.68651 49.69602 37683 ft 402 kts 270°
2026-05-06 16:17 63.68861 49.56924 37684 ft 401 kts 270°
2026-05-06 16:17 63.69047 49.44268 37690 ft 401 kts 270°
2026-05-06 16:18 63.69193 49.33832 37695 ft 401 kts 270°
2026-05-06 16:18 63.69362 49.21260 37695 ft 401 kts 270°
2026-05-06 16:19 63.69524 49.08708 37696 ft 401 kts 269°
2026-05-06 16:19 63.69674 48.96065 37698 ft 400 kts 269°
2026-05-06 16:20 63.69807 48.83527 37704 ft 400 kts 269°
2026-05-06 16:20 63.69940 48.70984 37702 ft 400 kts 269°
2026-05-06 16:21 63.70054 48.58450 37707 ft 400 kts 269°
2026-05-06 16:21 63.70149 48.45928 37701 ft 399 kts 269°
2026-05-06 16:22 63.70246 48.33401 37705 ft 399 kts 269°
2026-05-06 16:22 63.70324 48.20877 37704 ft 399 kts 269°
2026-05-06 16:23 63.70402 48.08356 37705 ft 399 kts 269°
2026-05-06 16:23 63.70494 47.95823 37700 ft 399 kts 269°
2026-05-06 16:24 63.70582 47.83215 37707 ft 399 kts 269°
2026-05-06 16:24 63.70644 47.70698 37708 ft 399 kts 269°
2026-05-06 16:25 63.70701 47.58169 37707 ft 399 kts 269°
2026-05-06 16:25 63.70757 47.45641 37711 ft 399 kts 268°
2026-05-06 16:26 63.70801 47.33124 37714 ft 399 kts 268°
2026-05-06 16:26 63.70833 47.20598 37712 ft 399 kts 268°
2026-05-06 16:27 63.70859 47.08006 37715 ft 399 kts 268°
2026-05-06 16:27 63.70878 46.95557 37714 ft 399 kts 268°
2026-05-06 16:28 63.70881 46.82956 37718 ft 399 kts 268°
2026-05-06 16:28 63.70867 46.70438 37722 ft 399 kts 268°
2026-05-06 16:29 63.70836 46.57931 37725 ft 399 kts 268°
2026-05-06 16:29 63.70800 46.45408 37728 ft 399 kts 268°
2026-05-06 16:30 63.70767 46.34999 37729 ft 399 kts 267°
2026-05-06 16:30 63.70708 46.20349 37729 ft 399 kts 267°
2026-05-06 16:31 63.70640 46.07834 37736 ft 399 kts 267°
2026-05-06 16:31 63.70559 45.95295 37737 ft 399 kts 267°
2026-05-06 16:32 63.70470 45.82783 37738 ft 399 kts 267°
2026-05-06 16:32 63.70374 45.70273 37741 ft 400 kts 267°
2026-05-06 16:33 63.70268 45.57745 37744 ft 400 kts 267°
2026-05-06 16:34 63.70081 45.38941 37749 ft 400 kts 266°
2026-05-06 16:34 63.69880 45.26359 37753 ft 399 kts 265°
2026-05-06 16:35 63.69481 45.13876 37756 ft 399 kts 264°
2026-05-06 16:35 63.69037 45.01411 37757 ft 399 kts 264°
2026-05-06 16:36 63.68617 44.88877 37761 ft 399 kts 264°
2026-05-06 16:36 63.68213 44.76398 37767 ft 399 kts 264°
2026-05-06 16:37 63.67797 44.63941 37770 ft 399 kts 264°
2026-05-06 16:37 63.67364 44.51513 37773 ft 398 kts 264°
2026-05-06 16:38 63.66918 44.39059 37776 ft 398 kts 264°
2026-05-06 16:38 63.66459 44.26536 37780 ft 398 kts 264°
2026-05-06 16:39 63.65999 44.14104 37779 ft 398 kts 264°
2026-05-06 16:39 63.65533 44.01691 37784 ft 398 kts 263°
2026-05-06 16:40 63.65059 43.89183 37785 ft 398 kts 263°
2026-05-06 16:40 63.64583 43.76786 37792 ft 398 kts 263°
2026-05-06 16:41 63.64086 43.64368 37794 ft 398 kts 263°
2026-05-06 16:41 63.63581 43.51968 37793 ft 398 kts 263°
2026-05-06 16:42 63.63064 43.39581 37797 ft 398 kts 263°
2026-05-06 16:42 63.62542 43.27199 37800 ft 398 kts 263°
2026-05-06 16:43 63.61997 43.14744 37802 ft 398 kts 263°
2026-05-06 16:43 63.61446 43.02376 37803 ft 398 kts 263°
2026-05-06 16:44 63.60893 42.89990 37800 ft 398 kts 263°
2026-05-06 16:44 63.60333 42.77627 37802 ft 398 kts 262°
2026-05-06 16:45 63.59749 42.65246 37808 ft 398 kts 262°
2026-05-06 16:45 63.59158 42.52870 37808 ft 399 kts 262°
2026-05-06 16:46 63.58653 42.42487 37809 ft 399 kts 262°
2026-05-06 16:46 63.58031 42.30118 37812 ft 399 kts 262°
2026-05-06 16:47 63.57424 42.17730 37813 ft 399 kts 262°
2026-05-06 16:47 63.57123 42.11532 37939 ft 399 kts 262°
2026-05-06 16:47 63.56820 42.05333 37816 ft 401 kts 263°
2026-05-06 16:48 63.56198 41.92933 37805 ft 399 kts 263°
2026-05-06 16:48 63.55557 41.80547 37806 ft 400 kts 263°
2026-05-06 16:49 63.54900 41.68050 37809 ft 401 kts 263°
2026-05-06 16:49 63.54240 41.55605 37811 ft 402 kts 263°
2026-05-06 16:50 63.53573 41.43169 37818 ft 402 kts 263°
2026-05-06 16:50 63.52880 41.30744 37825 ft 402 kts 262°
2026-05-06 16:51 63.52183 41.18286 37830 ft 402 kts 262°
2026-05-06 16:51 63.51477 41.05859 37833 ft 402 kts 262°
2026-05-06 16:52 63.50748 40.93338 37838 ft 402 kts 262°
2026-05-06 16:52 63.50021 40.80917 37838 ft 402 kts 262°
2026-05-06 16:53 63.49285 40.68505 37848 ft 402 kts 262°
2026-05-06 16:53 63.48537 40.56019 37848 ft 402 kts 262°
2026-05-06 16:54 63.47779 40.43611 37851 ft 402 kts 262°
2026-05-06 16:54 63.47009 40.31210 37860 ft 402 kts 262°
2026-05-06 16:55 63.46222 40.18819 37861 ft 402 kts 262°
2026-05-06 16:55 63.45426 40.06437 37864 ft 402 kts 262°
2026-05-06 16:56 63.44617 39.94070 37868 ft 402 kts 262°
2026-05-06 16:56 63.43821 39.81698 37874 ft 402 kts 262°
2026-05-06 16:57 63.43007 39.69348 37876 ft 402 kts 262°
2026-05-06 16:57 63.42181 39.56896 37877 ft 402 kts 262°
2026-05-06 16:58 63.41354 39.44546 37883 ft 402 kts 261°
2026-05-06 16:58 63.40512 39.32213 37886 ft 402 kts 261°
2026-05-06 16:59 63.39652 39.19784 37890 ft 402 kts 261°
2026-05-06 16:59 63.38783 39.07489 37892 ft 402 kts 261°
2026-05-06 17:00 63.37902 38.95142 37893 ft 402 kts 261°
2026-05-06 17:00 63.37016 38.82821 37896 ft 402 kts 261°
2026-05-06 17:01 63.36145 38.70501 37899 ft 402 kts 261°
2026-05-06 17:01 63.35325 38.58110 37902 ft 402 kts 262°
2026-05-06 17:02 63.34511 38.45803 37907 ft 402 kts 261°
2026-05-06 17:02 63.33667 38.33482 37904 ft 402 kts 261°
2026-05-06 17:03 63.32803 38.21128 37900 ft 402 kts 261°
2026-05-06 17:03 63.31937 38.08837 37903 ft 402 kts 261°
2026-05-06 17:04 63.31050 37.96492 37904 ft 402 kts 261°
2026-05-06 17:04 63.30156 37.84235 37905 ft 402 kts 261°
2026-05-06 17:05 63.29258 37.71957 37904 ft 402 kts 261°
2026-05-06 17:05 63.28349 37.59704 37908 ft 402 kts 261°
2026-05-06 17:06 63.27425 37.47464 37907 ft 402 kts 261°
2026-05-06 17:06 63.26483 37.35226 37885 ft 400 kts 259°
2026-05-06 17:07 63.25547 37.23008 37904 ft 400 kts 259°
2026-05-06 17:07 63.24606 37.10805 37910 ft 399 kts 259°
2026-05-06 17:07 63.24129 37.04645 37770 ft 399 kts 259°
2026-05-06 17:08 63.23652 36.98571 37372 ft 399 kts 258°
2026-05-06 17:08 63.23173 36.92537 36817 ft 398 kts 258°
2026-05-06 17:08 63.22686 36.86494 36188 ft 398 kts 258°
2026-05-06 17:08 63.22361 36.82496 35785 ft 398 kts 258°
2026-05-06 17:09 63.21864 36.76443 35176 ft 398 kts 257°
2026-05-06 17:09 63.21055 36.70634 34594 ft 396 kts 246°
2026-05-06 17:09 63.19737 36.65253 34015 ft 396 kts 237°
2026-05-06 17:09 63.17988 36.60541 33354 ft 398 kts 228°
2026-05-06 17:10 63.15944 36.56408 32674 ft 397 kts 226°
2026-05-06 17:10 63.13873 36.52293 32003 ft 395 kts 226°
2026-05-06 17:10 63.11857 36.48290 31370 ft 392 kts 227°
2026-05-06 17:10 63.09841 36.44281 30745 ft 388 kts 227°
2026-05-06 17:11 63.07816 36.40264 30125 ft 385 kts 227°
2026-05-06 17:11 63.05831 36.36343 29430 ft 381 kts 227°
2026-05-06 17:11 63.03870 36.32478 28712 ft 377 kts 227°
2026-05-06 17:11 63.01919 36.28627 28030 ft 373 kts 228°
2026-05-06 17:12 63.00005 36.24850 27358 ft 369 kts 228°
2026-05-06 17:12 62.98092 36.21085 26699 ft 365 kts 228°
2026-05-06 17:12 62.96213 36.17394 26055 ft 361 kts 228°
2026-05-06 17:12 62.94344 36.13729 25432 ft 358 kts 228°
2026-05-06 17:13 62.92492 36.10109 24817 ft 354 kts 228°
2026-05-06 17:13 62.90658 36.06538 24210 ft 351 kts 228°
2026-05-06 17:13 62.88817 36.02959 23614 ft 348 kts 228°
2026-05-06 17:13 62.87038 35.99501 22943 ft 345 kts 229°
2026-05-06 17:14 62.85237 35.95970 22250 ft 342 kts 229°
2026-05-06 17:14 62.83471 35.92491 21586 ft 340 kts 228°
2026-05-06 17:14 62.81717 35.89038 20915 ft 338 kts 228°
2026-05-06 17:14 62.79969 35.85599 20270 ft 337 kts 228°
2026-05-06 17:15 62.78225 35.82176 19645 ft 336 kts 227°
2026-05-06 17:15 62.76488 35.78783 19028 ft 335 kts 227°
2026-05-06 17:15 62.74745 35.75392 18421 ft 335 kts 227°
2026-05-06 17:15 62.73009 35.72015 17765 ft 335 kts 227°
2026-05-06 17:16 62.71251 35.68593 17062 ft 335 kts 227°
2026-05-06 17:16 62.69516 35.65215 16391 ft 334 kts 226°
2026-05-06 17:16 62.67782 35.61851 15743 ft 333 kts 226°
2026-05-06 17:16 62.66076 35.58555 15109 ft 332 kts 226°
2026-05-06 17:17 62.64326 35.55182 14472 ft 331 kts 226°
2026-05-06 17:17 62.62608 35.51876 13848 ft 329 kts 226°
2026-05-06 17:17 62.60902 35.48593 13172 ft 327 kts 225°
2026-05-06 17:17 62.59206 35.45334 12495 ft 324 kts 225°
2026-05-06 17:18 62.57523 35.42107 11823 ft 321 kts 225°
2026-05-06 17:18 62.55841 35.38887 11179 ft 317 kts 225°
2026-05-06 17:18 62.54220 35.35792 10938 ft 303 kts 225°
2026-05-06 17:18 62.52684 35.32875 10912 ft 284 kts 225°
2026-05-06 17:19 62.51245 35.30145 10915 ft 265 kts 225°
2026-05-06 17:19 62.49903 35.27594 10906 ft 250 kts 225°
2026-05-06 17:19 62.48625 35.25164 10791 ft 240 kts 225°
2026-05-06 17:19 62.47385 35.22803 10556 ft 236 kts 225°
2026-05-06 17:20 62.46144 35.20439 10326 ft 235 kts 225°
2026-05-06 17:20 62.44917 35.18103 10098 ft 234 kts 225°
2026-05-06 17:20 62.43694 35.15785 9868 ft 234 kts 225°
2026-05-06 17:20 62.42469 35.13463 9639 ft 234 kts 225°
2026-05-06 17:21 62.41247 35.11154 9378 ft 234 kts 225°
2026-05-06 17:21 62.40007 35.08812 9129 ft 234 kts 225°
2026-05-06 17:21 62.38780 35.06508 8886 ft 234 kts 225°
2026-05-06 17:21 62.37547 35.04221 8638 ft 233 kts 225°
2026-05-06 17:22 62.36313 35.01946 8407 ft 233 kts 225°
2026-05-06 17:22 62.35077 34.99673 8159 ft 233 kts 225°
2026-05-06 17:22 62.33829 34.97379 7918 ft 233 kts 225°
2026-05-06 17:22 62.32597 34.95119 7679 ft 233 kts 225°
2026-05-06 17:23 62.31361 34.92851 7438 ft 233 kts 225°
2026-05-06 17:23 62.30128 34.90596 7212 ft 233 kts 225°
2026-05-06 17:23 62.28901 34.88348 6981 ft 232 kts 225°
2026-05-06 17:23 62.27670 34.86089 6747 ft 232 kts 225°
2026-05-06 17:24 62.26445 34.83843 6517 ft 232 kts 225°
2026-05-06 17:24 62.25213 34.81590 6302 ft 232 kts 225°
2026-05-06 17:24 62.23990 34.79356 6054 ft 231 kts 225°
2026-05-06 17:24 62.22750 34.77096 5859 ft 232 kts 225°
2026-05-06 17:25 62.21522 34.74862 5672 ft 232 kts 225°
2026-05-06 17:25 62.20287 34.72622 5491 ft 233 kts 225°
2026-05-06 17:25 62.19048 34.70377 5303 ft 233 kts 225°
2026-05-06 17:25 62.17814 34.68137 5122 ft 233 kts 225°
2026-05-06 17:26 62.16700 34.65613 4928 ft 228 kts 240°
2026-05-06 17:26 62.16034 34.62583 4749 ft 225 kts 256°
2026-05-06 17:26 62.15739 34.59300 4563 ft 225 kts 261°
2026-05-06 17:26 62.15465 34.56018 4377 ft 225 kts 261°
2026-05-06 17:27 62.15182 34.52716 4191 ft 225 kts 261°
2026-05-06 17:27 62.14897 34.49426 4005 ft 226 kts 261°
2026-05-06 17:27 62.14612 34.46118 3824 ft 225 kts 261°
2026-05-06 17:27 62.14320 34.42788 3632 ft 226 kts 259°
2026-05-06 17:28 62.13676 34.39737 3447 ft 227 kts 237°
2026-05-06 17:28 62.12514 34.37530 3293 ft 224 kts 214°
2026-05-06 17:28 62.11136 34.36108 3203 ft 215 kts 208°
2026-05-06 17:28 62.09797 34.34890 3204 ft 204 kts 209°
2026-05-06 17:29 62.08496 34.33700 3207 ft 203 kts 209°
2026-05-06 17:29 62.07219 34.32530 3200 ft 194 kts 209°
2026-05-06 17:29 62.06005 34.31418 3201 ft 187 kts 210°
2026-05-06 17:29 62.04817 34.30328 3200 ft 184 kts 210°
2026-05-06 17:30 62.03683 34.29295 3203 ft 167 kts 210°
2026-05-06 17:30 62.02696 34.28398 3113 ft 143 kts 211°
2026-05-06 17:30 62.01816 34.27592 2966 ft 133 kts 212°
2026-05-06 17:30 62.00981 34.26824 2801 ft 130 kts 212°
2026-05-06 17:31 62.00156 34.26068 2633 ft 128 kts 212°
2026-05-06 17:31 61.99607 34.25566 2515 ft 127 kts 212°
2026-05-06 17:31 61.98792 34.24821 2347 ft 127 kts 211°
2026-05-06 17:31 61.97984 34.24084 2162 ft 127 kts 211°
2026-05-06 17:32 61.97174 34.23345 1984 ft 126 kts 211°
2026-05-06 17:32 61.96367 34.22610 1818 ft 126 kts 210°
2026-05-06 17:32 61.95562 34.21877 1632 ft 126 kts 210°
2026-05-06 17:32 61.94754 34.21142 1452 ft 127 kts 209°
2026-05-06 17:33 61.93945 34.20410 1241 ft 127 kts 208°
2026-05-06 17:33 61.93136 34.19673 983 ft 126 kts 207°
2026-05-06 17:33 61.92337 34.18943 797 ft 125 kts 206°
2026-05-06 17:33 61.91541 34.18231 593 ft 124 kts 205°
2026-05-06 17:34 61.90744 34.17506 437 ft 126 kts 206°
2026-05-06 17:34 61.89931 34.16773 265 ft 126 kts 205°
2026-05-06 17:34 61.89125 34.16030 151 ft 122 kts 203°
2026-05-06 17:34 61.88442 34.15404 154 ft 81 kts 203°
2026-05-06 17:35 61.88099 34.15090 153 ft 33 kts 203°
2026-05-06 17:35 61.87936 34.14940 155 ft 5 kts 202°
2026-05-06 17:35 61.87915 34.14979 156 ft 5 kts 122°
2026-05-06 17:36 61.87871 34.15175 156 ft 7 kts 111°
2026-05-06 17:36 61.87860 34.15235 155 ft 5 kts 111°
2026-05-06 17:36 61.87842 34.15330 155 ft 8 kts 111°
2026-05-06 17:36 61.87834 34.15367 155 ft 1 kts 126°
2026-05-06 17:37 61.87827 34.15382 155 ft 2 kts 133°
2026-05-06 17:37 61.87815 34.15410 155 ft 3 kts 130°
2026-05-06 17:37 61.87802 34.15454 155 ft 4 kts 115°
2026-05-06 17:37 61.87797 34.15480 155 ft 0 kts 112°
2026-05-06 17:40 61.87797 34.15481 156 ft 0 kts 112°